Hourly Data Report for September 11, 2021

WINNIPEG THE FORKS
MANITOBA
Current Station Operator: ECCC - MSC

49°53'18.008" N
97°07'46.007" W
230.00 m
5023262
71579
XWN

Download Data

Hourly Data (September 2021)
Hourly Data Report for September 11, 2021
TIME
LST
Temp Definition
°C
Dew Point Definition
°C
Rel Hum Definition
%
Precip. Amount Definition
mm

Wind Dir Definition
10's deg

Wind Spd Definition
km/h
Visibility Definition
km
Stn Press Definition
kPa
Hmdx Definition


Wind Chill Definition


Weather Definition


00:00 15.8 11.7 76 0.0 30 2   98.36     LegendNANA
01:00 14.9 9.8 71 0.0 34 13   98.41     LegendNANA
02:00 13.8 8.7 71 0.0 33 9   98.46     LegendNANA
03:00 12.9 7.4 69 0.0 33 6   98.54     LegendNANA
04:00 12.7 6.1 64 0.0 32 8   98.60     LegendNANA
05:00 12.8 5.7 62 0.0 30 4   98.65     LegendNANA
06:00 12.6 6.3 66 0.0 28 6   98.68     LegendNANA
07:00 12.6 5.5 62 0.0 28 6   98.70     LegendNANA
08:00 12.8 6.7 66 0.0 27 5   98.71     LegendNANA
09:00 14.9 8.5 65 0.0 30 5   98.74     LegendNANA
10:00 15.9 7.2 56 0.0 28 8   98.73     LegendNANA
11:00 16.9 6.9 52 0.0 32 8   98.75     LegendNANA
12:00 17.6 4.4 42 0.0 29 10   98.75     LegendNANA
13:00 17.8 6.7 48 0.0 30 8   98.75     LegendNANA
14:00 17.7 5.7 45 0.0 30 11   98.76     LegendNANA
15:00 18.2 7.2 48 0.0 31 8   98.76     LegendNANA
16:00 17.4 6.5 49 0.0 32 9   98.77     LegendNANA
17:00 16.6 6.4 51 0.0 33 6   98.80     LegendNANA
18:00 15.7 5.8 52 0.0 31 5   98.82     LegendNANA
19:00 14.9 5.8 55 0.0 31 6   98.86     LegendNANA
20:00 14.5 6.3 58 0.0 32 4   98.91     LegendNANA
21:00 14.0 6.2 59 0.0 33 5   98.97     LegendNANA
22:00 13.4 6.5 63 0.0 34 7   98.95     LegendNANA
23:00 13.1 6.4 64 0.0 35 8   98.98     LegendNANA

Notes on Data Quality.

Legend

  • E = Estimated
  • M = Missing
  • NA = Not Available*
  • [empty] = Indicates an unobserved value
Date modified: